Location: Melbourne
(37.8170°S, 144.9670°E)
Time: 18:27:10
(UTC+10:00)

ADEOS Rocket - Visible Passes

Search period start: 30 May 2015 00:00
Search period end: 09 June 2015 00:00
Orbit: 859 x 1308 km, 98.7° (Epoch: 28 May)

Date Brightness Start Highest point End Pass type
(mag) Time Alt. Az. Time Alt. Az. Time Alt. Az.
30 May 5.5 05:49:36 10° ENE 05:55:37 26° ESE 06:01:52 10° S visible
30 May 5.5 20:46:47 10° NNW 20:46:47 10° NNW 20:46:51 10° NNW visible
31 May 6.1 05:05:14 10° ESE 05:07:35 12° SE 05:10:27 10° SSE visible
31 May 4.2 06:44:12 10° NNE 06:51:47 62° ESE 06:59:27 10° S visible
31 May 5.0 19:57:14 15° N 19:57:14 15° N 19:58:03 10° N visible
01 Jun 5.3 05:56:57 10° ENE 06:03:21 30° ESE 06:09:54 10° S visible
02 Jun 6.0 05:11:52 10° E 05:15:14 14° ESE 05:19:02 10° SSE visible
02 Jun 4.0 06:51:53 10° NNE 06:59:35 70° ESE 07:07:19 10° S visible
02 Jun 5.1 20:05:02 14° N 20:05:02 14° N 20:05:47 10° N visible
03 Jun 5.1 06:04:23 10° NE 06:11:06 34° ESE 06:17:52 10° S visible
03 Jun 5.0 19:15:28 11° NNE 19:15:28 11° NNE 19:15:40 10° NNE visible
04 Jun 5.9 05:18:46 10° E 05:22:54 16° ESE 05:27:23 10° SSE visible
04 Jun 5.1 20:12:50 14° NNW 20:12:50 14° NNW 20:13:28 10° NNW visible
05 Jun 4.9 06:11:52 10° NE 06:18:51 39° ESE 06:25:50 10° S visible
05 Jun 5.0 19:23:15 12° NNE 19:23:15 12° NNE 19:23:40 10° NNE visible
06 Jun 5.8 05:25:50 10° E 05:30:35 19° ESE 05:35:36 10° SSE visible
06 Jun 5.2 20:20:36 13° NNW 20:20:36 13° NNW 20:21:06 10° NNW visible
07 Jun 4.7 06:19:24 10° NE 06:26:37 44° ESE 06:33:44 10° S visible
07 Jun 4.9 19:31:00 13° NNE 19:31:00 13° NNE 19:31:35 10° NNE visible
08 Jun 5.7 05:33:00 10° ENE 05:38:17 21° ESE 05:43:43 10° SSE visible
08 Jun 5.3 20:28:21 12° NNW 20:28:21 12° NNW 20:28:42 10° NNW visible
